Greenwood, SC

7:30 AM EDT on May 23, 2017 (GMT -0400)
Greenwood County

Weather History for KGRD - November, 2013

Change the Weather History Date:

Tuesday, November 19, 2013

  Actual Average (KAND) Record (KAND)
Temperature  
Mean Temperature 50 °F -  
Max Temperature 60 °F 62 °F 80 °F (1963)
Min Temperature 39 °F 40 °F 19 °F (2014)
Degree Days  
Heating Degree Days 16    
Moisture  
Dew Point 27 °F    
Average Humidity 44    
Maximum Humidity 73    
Minimum Humidity 22    
Precipitation  
Precipitation 0.00 in - - ()
Sea Level Pressure  
Sea Level Pressure 30.14 in    
Wind  
Wind Speed 5 mph (NE)    
Max Wind Speed 13 mph    
Max Gust Speed 17 mph    
Visibility 10 miles    
Events      
Averages and records for this station are not official NWS values.
T = Trace of Precipitation, MM = Missing Value Source: NWS Daily Summary

Daily Weather History Graph

Daily Weather History Graph

Search for Another Location

Airport or City:

Trip Planner

Search our weather history database for the weather conditions in past years. The results will help you decide how hot, cold, wet, or windy it might be!

Date:

Astronomy

Nov. 19, 2013 Rise Set
Actual Time 7:05 AM EST 5:22 PM EST
Civil Twilight 6:38 AM EST 5:49 PM EST
Nautical Twilight 6:08 AM EST 6:19 PM EST
Astronomical Twilight 5:38 AM EST 6:49 PM EST
Moon 7:13 PM EST (11/19) 8:43 AM EST (11/19)
Length of Visible Light 11h 10m
Length of Day
10h 16m
Waning Gibbous, 96% of the Moon is Illuminated
Nov 19
Waning Gibbous
Nov 25
Last Quarter
Dec 2
New
Dec 9
First Quarter
Dec 17
Full

Hourly Weather History & Observations

Time (EST) Temp. Windchill Dew Point Humidity Pressure Visibility Wind Dir Wind Speed Gust Speed Precip Events Conditions
12:56 AM 50.0 °F - 32.0 °F 50% 30.00 in 10.0 mi North 5.8 mph - N/A   Clear
1:56 AM 48.9 °F - 30.9 °F 50% 30.00 in 10.0 mi North 5.8 mph - N/A   Clear
2:56 AM 48.0 °F - 28.9 °F 48% 30.02 in 10.0 mi Calm Calm - N/A   Clear
3:56 AM 42.1 °F - 32.0 °F 67% 30.03 in 10.0 mi Calm Calm - N/A   Clear
4:56 AM 42.1 °F 40.2 °F 30.9 °F 65% 30.05 in 10.0 mi NNE 3.5 mph - N/A   Clear
5:56 AM 43.0 °F 40.3 °F 30.9 °F 62% 30.07 in 10.0 mi NNE 4.6 mph - N/A   Clear
6:56 AM 39.0 °F 36.8 °F 30.9 °F 73% 30.11 in 10.0 mi NNE 3.5 mph - N/A   Clear
7:56 AM 43.0 °F 40.3 °F 33.1 °F 68% 30.14 in 10.0 mi NNE 4.6 mph - N/A   Clear
8:56 AM 48.9 °F - 32.0 °F 52% 30.17 in 10.0 mi NE 6.9 mph - N/A   Clear
9:56 AM 53.1 °F - 27.0 °F 37% 30.18 in 10.0 mi NE 12.7 mph - N/A   Clear
10:56 AM 55.0 °F - 25.0 °F 31% 30.18 in 10.0 mi ENE 11.5 mph - N/A   Clear
11:56 AM 57.0 °F - 25.0 °F 29% 30.18 in 10.0 mi NE 10.4 mph 17.3 mph N/A   Clear
12:56 PM 59.0 °F - 23.0 °F 25% 30.15 in 10.0 mi NNE 9.2 mph 16.1 mph N/A   Clear
1:56 PM 60.1 °F - 21.9 °F 23% 30.13 in 10.0 mi North 8.1 mph - N/A   Clear
2:56 PM 60.1 °F - 21.0 °F 22% 30.12 in 10.0 mi NE 8.1 mph - N/A   Clear
3:56 PM 59.0 °F - 21.0 °F 23% 30.13 in 10.0 mi NNE 9.2 mph - N/A   Clear
4:56 PM 54.0 °F - 25.0 °F 33% 30.14 in 10.0 mi NNE 3.5 mph - N/A   Clear
5:56 PM 50.0 °F - 25.0 °F 38% 30.14 in 10.0 mi NE 4.6 mph - N/A   Clear
6:56 PM 48.0 °F - 26.1 °F 42% 30.18 in 10.0 mi NE 5.8 mph - N/A   Clear
7:56 PM 46.9 °F - 25.0 °F 42% 30.20 in 10.0 mi NE 3.5 mph - N/A   Clear
8:56 PM 45.0 °F 42.6 °F 25.0 °F 46% 30.22 in 10.0 mi NE 4.6 mph - N/A   Clear
9:56 PM 46.0 °F 43.1 °F 25.0 °F 44% 30.24 in 10.0 mi NE 5.8 mph - N/A   Clear
10:56 PM 46.0 °F - 25.0 °F 44% 30.23 in 10.0 mi Calm Calm - N/A   Clear
11:56 PM 48.0 °F - 25.0 °F 41% 30.25 in 10.0 mi ENE 6.9 mph - N/A   Clear